Location: Jaite
(41.2884°N, 81.5737°W)
Time: 21:15:08
(UTC+00:00)

Cosmos 1726 Rocket - Pass Details

Date: 18 January 2020
Orbit: 602 x 631 km, 82.5° (Epoch: 17 February)

Event Time Altitude Azimuth Distance (km) Brightness Sun altitude
Rises 11:11:22 0° 175° (S) 2,907 7.2 -18.0°
Reaches altitude 10° 11:13:38 10° 171° (S) 2,003 6.4 -17.6°
Maximum altitude 11:17:57 54° 94° (E) 765 4.4 -16.8°
Drops below altitude 10° 11:22:18 10° 17° (NNE) 2,009 6.2 -16.0°
Sets 11:24:34 0° 13° (NNE) 2,916 7.0 -15.6°
